Find Starlink 31960

NORAD ID: 59931 Int'l Des: 2024-106 Owner: SPXS Country: US Constellation: starlink operational
LEOCIRCULAR

Live Position

Loading 3D Globe...

About Starlink 31960

Description loading...

Upcoming Passes

Passes for default location (London). Set your location on the main map for personalized predictions.

Altitude History

Loading altitude history...

Two-Line Element Set

1 59931U 24106K 26124.38632766 .00002271 00000-0 92017-4 0 9991
2 59931 43.0010 17.7393 0001228 287.6106 72.4611 15.27575798109041
Epoch: May 4, 2026 • Age: 9 hours

Current Status

Altitude 482.6 km
Velocity 7.63 km/s
Sub-Earth Point 12.14°N, 52.47°E
Launch Date Jun 1, 2024
Age 1.9 years
Type internet

Technical Details

Classification Payload
Mass 730.00 kg
Dry Mass 700.00 kg
Total Mass 730.00 kg
Length 0.30 m
Diameter 4.10 m
Span 29.00 m
Shape Box + pan
Manufacturer SPXS
Bus Type Starlink V2M
Phase Status In Orbit
Owner/State SPXS/US

Most Searched